This demonstration page uses our WeatherBlox Daily Observations layout. Learn more.

Left ArrowRight Arrow

36.19886, -115.1175

Hourly Observations for May 12, 2020

Temp ( °F °C ) Dew Point ( °F °C ) Humidity (%) Winds ( mph kmh ) Pressure ( in mb ) Visibility ( mi km ) Precip ( " mm )
12:53 am 00:53 Clear 76 24.4 28 -2.2 17 17 SSW 23 37 29.67 1005 10 16 N/A
1:53 am 01:53 Clear 76 24.4 25 -3.9 15 15 SSW 22 35 29.66 1005 10 16 N/A
2:53 am 02:53 Clear 75 23.9 24 -4.4 15 15 SW 29 46 29.66 1005 10 16 N/A
3:53 am 03:53 Clear 75 23.9 24 -4.4 15 15 WSW 23 37 29.68 1005 10 16 N/A
4:53 am 04:53 Clear 74 23.3 24 -4.4 15 15 WSW 29 46 29.69 1005 10 16 N/A
5:53 am 05:53 Sunny 73 22.8 23 -5 15 15 SW 30 48 29.68 1005 10 16 N/A
6:53 am 06:53 Sunny 75 23.9 24 -4.4 15 15 SW 30 48 29.69 1005 10 16 N/A
7:53 am 07:53 Sunny 76 24.4 24 -4.4 14 14 S 28 44 29.72 1006 10 16 N/A
8:53 am 08:53 Sunny 79 26.1 25 -3.9 14 14 S 20 31 29.74 1007 10 16 N/A
9:53 am 09:53 Sunny 80 26.7 27 -2.8 14 14 SSW 23 37 29.75 1007 10 16 N/A
10:53 am 10:53 Sunny 80 26.7 28 -2.2 15 15 SSW 26 43 29.76 1008 10 16 N/A
11:53 am 11:53 Sunny 83 28.3 29 -1.7 14 14 SSW 26 43 29.72 1007 10 16 N/A
12:53 pm 12:53 Sunny 84 28.9 30 -1.1 14 14 SSW 26 43 29.72 1006 10 16 N/A
1:53 pm 13:53 Sunny 84 28.9 31 -0.6 15 15 S 28 44 29.70 1006 10 16 N/A
2:53 pm 14:53 Sunny 85 29.4 31 -0.6 14 14 S 28 44 29.70 1006 10 16 N/A
3:53 pm 15:53 Sunny 84 28.9 32 undefined 15 15 SSW 24 39 29.69 1006 10 16 N/A
4:53 pm 16:53 Sunny 84 28.9 29 -1.7 13 13 SSW 20 31 29.68 1005 10 16 N/A
5:53 pm 17:53 Sunny 82 27.8 30 -1.1 15 15 SSW 26 43 29.66 1005 10 16 N/A
6:53 pm 18:53 Sunny 79 26.1 35 1.7 20 20 SSW 33 54 29.66 1005 10 16 N/A
7:53 pm 19:53 Clear 77 25 35 1.7 22 22 SSW 23 37 29.68 1005 10 16 N/A
8:53 pm 20:53 Clear 75 23.9 34 1.1 22 22 SSE 18 30 29.72 1006 10 16 N/A
9:53 pm 21:53 Clear 74 23.3 34 1.1 23 23 S 12 19 29.74 1007 10 16 N/A
10:53 pm 22:53 Clear 72 22.2 36 2.2 27 27 SSW 17 28 29.73 1007 10 16 N/A
11:53 pm 23:53 Clear 70 21.1 37 2.8 30 30 S 10 17 29.73 1007 10 16 N/A

Powered by AerisWeather